CW5212 Weather Reports


Display with metric or nautical units.
time (UTC)temp
F
wind
direction
speed
MPH
gust
MPH
rain 1hr
in
rain 24hr
in
rain mn
in
humidity
%
barometer
mb
20260906020047 70 209 4.0 7.0 0.00 0.00 0.00 19 942.6
20260906014538 71 197 6.0 10.0 0.00 0.00 0.00 17 942.6
20260906013103 73 170 7.0 11.0 0.00 0.00 0.00 16 942.7
20260906013002 73 184 6.0 12.0 0.00 0.00 0.00 17 942.7
20260906011551 74 223 5.0 13.0 0.00 0.00 0.00 17 942.8
20260906010035 75 189 6.0 15.0 0.00 0.00 0.00 16 942.8
20260906004550 75 219 5.0 13.0 0.00 0.00 0.00 16 942.7
20260906003030 75 168 9.0 15.0 0.00 0.00 0.00 16 942.7
20260906001510 76 189 7.0 12.0 0.00 0.00 0.00 15 942.6
20260906000044 77 172 8.0 14.0 0.00 0.00 0.00 15 942.5
20260905234526 77 196 8.0 23.0 0.00 0.00 0.00 16 942.5
20260905233058 77 183 7.0 16.0 0.00 0.00 0.00 16 942.4
20260905231543 77 242 11.0 22.0 0.00 0.00 0.00 15 942.5
20260905230108 78 186 11.0 17.0 0.00 0.00 0.00 15 942.6
20260905224542 77 117 12.0 19.0 0.00 0.00 0.00 15 942.5
20260905223024 77 209 10.0 17.0 0.00 0.00 0.00 15 942.6
20260905221516 78 253 11.0 24.0 0.00 0.00 0.00 19 942.7
20260905220023 77 197 12.0 20.0 0.00 0.00 0.00 16 942.8
20260905214515 78 205 13.0 22.0 0.00 0.00 0.00 16 942.8
20260905213106 77 153 8.0 19.0 0.00 0.00 0.00 17 943.0
20260905211548 77 205 7.0 14.0 0.00 0.00 0.00 18 943.0
20260905210025 76 162 12.0 19.0 0.00 0.00 0.00 19 943.1
20260905204610 76 243 8.0 17.0 0.00 0.00 0.00 21 943.1
20260905204511 76 196 8.0 17.0 0.00 0.00 0.00 20 943.0
20260905203050 75 190 6.0 12.0 0.00 0.00 0.00 25 943.2
20260905201523 76 114 11.0 18.0 0.00 0.00 0.00 23 943.5
20260905200048 74 178 8.0 13.0 0.00 0.00 0.00 24 943.8
20260905194626 74 155 7.0 12.0 0.00 0.00 0.00 24 944.0
20260905193004 73 90 6.0 16.0 0.00 0.00 0.00 26 944.0
20260905191542 72 283 8.0 11.0 0.00 0.00 0.00 27 944.1
20260905190036 71 186 3.0 11.0 0.00 0.00 0.00 30 944.4
20260905184532 70 248 2.0 10.0 0.00 0.00 0.00 33 944.5
20260905183042 70 216 3.0 8.0 0.00 0.00 0.00 34 944.8
20260905181535 71 128 5.0 11.0 0.00 0.00 0.00 29 944.9
20260905180027 70 123 5.0 12.0 0.00 0.00 0.00 31 945.1
20260905174515 67 100 3.0 13.0 0.00 0.00 0.00 34 945.2
20260905173054 64 199 2.0 7.0 0.00 0.00 0.00 41 945.2
20260905171536 62 248 4.0 8.0 0.00 0.00 0.00 46 945.3
20260905170009 60 227 2.0 7.0 0.00 0.00 0.00 47 945.2
20260905164536 59 213 5.0 10.0 0.00 0.00 0.00 48 945.2
20260905163014 58 257 4.0 7.0 0.00 0.00 0.00 49 945.2
20260905161550 57 244 3.0 5.0 0.00 0.00 0.00 48 945.0
20260905160008 56 223 2.0 6.0 0.00 0.00 0.00 51 945.0
20260905154546 55 218 3.0 9.0 0.00 0.00 0.00 54 944.9
20260905153024 54 223 3.0 8.0 0.00 0.00 0.00 55 945.0
20260905151600 53 260 3.0 7.0 0.00 0.00 0.00 57 945.1
20260905151502 53 252 4.0 7.0 0.00 0.00 0.00 57 945.1
20260905150046 52 236 4.0 7.0 0.00 0.00 0.00 59 944.9
20260905144522 51 250 4.0 6.0 0.00 0.00 0.00 61 945.0
20260905143054 50 238 3.0 6.0 0.00 0.00 0.00 64 944.9
20260905141530 48 242 4.0 7.0 0.00 0.00 0.00 66 944.6
20260905140010 47 236 5.0 6.0 0.00 0.00 0.00 71 944.5
20260905134550 45 247 3.0 5.0 0.00 0.00 0.00 74 944.5
20260905133027 45 230 3.0 4.0 0.00 0.00 0.00 75 944.3
20260905131538 45 245 2.0 5.0 0.00 0.00 0.00 75 944.3
20260905130012 45 264 3.0 8.0 0.00 0.00 0.00 74 944.1
20260905124550 46 259 4.0 9.0 0.00 0.00 0.00 73 944.0
20260905123026 46 248 6.0 12.0 0.00 0.00 0.00 72 943.9
20260905121505 47 244 7.0 9.0 0.00 0.00 0.00 71 943.7
20260905120040 47 253 5.0 8.0 0.00 0.00 0.00 70 943.6
20260905114520 48 226 5.0 8.0 0.00 0.00 0.00 69 943.6
20260905113054 48 261 5.0 9.0 0.00 0.00 0.00 69 943.4
20260905113001 48 231 5.0 9.0 0.00 0.00 0.00 69 943.4
20260905111536 48 207 7.0 14.0 0.00 0.00 0.00 69 943.5
20260905110014 47 273 7.0 12.0 0.00 0.00 0.00 70 943.4
20260905104602 48 239 9.0 15.0 0.00 0.00 0.00 71 943.2
20260905103026 48 239 6.0 12.0 0.00 0.00 0.00 70 943.2
20260905101604 48 257 8.0 13.0 0.00 0.00 0.00 69 943.0
20260905101502 48 242 7.0 13.0 0.00 0.00 0.00 69 942.9
20260905100043 48 223 5.0 8.0 0.00 0.00 0.00 70 942.8
20260905094516 49 212 5.0 12.0 0.00 0.00 0.00 68 942.5
20260905093054 50 231 7.0 11.0 0.00 0.00 0.00 68 942.4
20260905091538 50 234 5.0 9.0 0.00 0.00 0.00 67 942.3
20260905090010 51 250 5.0 11.0 0.00 0.00 0.00 66 942.1
20260905084547 51 272 9.0 13.0 0.00 0.00 0.00 64 941.9
20260905083023 51 244 9.0 12.0 0.00 0.00 0.00 65 941.7
20260905081600 51 252 8.0 13.0 0.00 0.00 0.00 64 941.7
20260905081502 51 243 8.0 13.0 0.00 0.00 0.00 64 941.7
20260905080037 52 239 8.0 13.0 0.00 0.00 0.00 63 941.5
20260905074507 52 238 9.0 13.0 0.00 0.00 0.00 61 941.4
20260905073044 52 250 6.0 12.0 0.00 0.00 0.00 61 941.1
20260905071520 53 231 8.0 14.0 0.00 0.00 0.00 59 940.8
20260905070003 53 235 7.0 11.0 0.00 0.00 0.00 60 940.5
20260905064533 53 232 8.0 12.0 0.00 0.00 0.00 60 940.3
20260905063017 54 250 10.0 15.0 0.00 0.00 0.00 58 940.2
20260905061551 54 236 5.0 12.0 0.00 0.00 0.00 59 940.0
20260905060027 54 219 6.0 10.0 0.00 0.00 0.00 59 939.9
20260905054606 54 260 3.0 5.0 0.00 0.00 0.00 57 939.8
20260905053039 55 269 3.0 7.0 0.00 0.00 0.00 54 939.7
20260905051519 56 248 3.0 6.0 0.00 0.00 0.00 53 939.5
20260905050053 57 270 2.0 7.0 0.00 0.00 0.00 47 939.5
20260905044532 59 214 6.0 10.0 0.00 0.00 0.00 45 939.4
20260905043038 60 256 9.0 14.0 0.00 0.00 0.00 41 939.4
20260905041551 62 250 7.0 12.0 0.00 0.00 0.00 37 939.4
20260905040042 65 294 5.0 9.0 0.00 0.00 0.00 27 939.3
20260905034531 68 117 1.0 3.0 0.00 0.00 0.00 23 939.2
20260905033007 67 99 2.0 3.0 0.00 0.00 0.00 25 939.1
20260905031548 66 59 1.0 3.0 0.00 0.00 0.00 28 939.2
20260905030044 67 58 2.0 5.0 0.00 0.00 0.00 28 939.2
20260905024527 67 60 2.0 4.0 0.00 0.00 0.00 26 939.1
20260905023059 66 26 4.0 6.0 0.00 0.00 0.00 27 939.1
20260905021536 68 57 3.0 5.0 0.00 0.00 0.00 22 939.3